| time (UTC) | temp C | wind direction | speed KPH | gust KPH | rain 1hr cm | rain 24hr cm | rain mn cm | humidity % | barometer mb |
| 20260508184526 | 18 | 286 | 11.3 | 24.1 | 0.00 | 0.00 | 0.00 | 48 | 1012.9 |
| 20260508183017 | 19 | 252 | 12.9 | 30.6 | 0.00 | 0.00 | 0.00 | 46 | 1012.9 |
| 20260508181521 | 20 | 204 | 12.9 | 24.1 | 0.00 | 0.00 | 0.00 | 46 | 1013.1 |
| 20260508180020 | 20 | 211 | 12.9 | 32.2 | 0.00 | 0.00 | 0.00 | 46 | 1013.4 |
| 20260508174522 | 18 | 248 | 11.3 | 20.9 | 0.00 | 0.00 | 0.00 | 49 | 1013.8 |
| 20260508173020 | 18 | 285 | 9.7 | 24.1 | 0.00 | 0.00 | 0.00 | 50 | 1014.1 |
| 20260508171529 | 18 | 201 | 4.8 | 22.5 | 0.00 | 0.00 | 0.00 | 54 | 1014.2 |
| 20260508170017 | 17 | 279 | 8.0 | 14.5 | 0.00 | 0.00 | 0.00 | 53 | 1014.3 |
| 20260508164522 | 17 | 238 | 8.0 | 24.1 | 0.00 | 0.00 | 0.00 | 54 | 1014.6 |
| 20260508163015 | 17 | 262 | 9.7 | 24.1 | 0.00 | 0.00 | 0.00 | 54 | 1014.8 |
| 20260508161530 | 17 | 281 | 12.9 | 22.5 | 0.00 | 0.00 | 0.00 | 54 | 1015.0 |
| 20260508160020 | 17 | 225 | 11.3 | 22.5 | 0.00 | 0.00 | 0.00 | 53 | 1014.8 |
| 20260508154512 | 16 | 273 | 11.3 | 22.5 | 0.00 | 0.00 | 0.00 | 56 | 1015.1 |
| 20260508153015 | 16 | 271 | 12.9 | 27.4 | 0.00 | 0.00 | 0.00 | 55 | 1015.3 |
| 20260508151511 | 16 | 261 | 8.0 | 22.5 | 0.00 | 0.00 | 0.00 | 55 | 1015.7 |
| 20260508150019 | 16 | 298 | 9.7 | 24.1 | 0.00 | 0.00 | 0.00 | 56 | 1015.7 |
| 20260508144530 | 16 | 250 | 12.9 | 25.7 | 0.00 | 0.00 | 0.00 | 54 | 1015.8 |
| 20260508143025 | 15 | 239 | 9.7 | 22.5 | 0.00 | 0.00 | 0.00 | 56 | 1015.8 |
| 20260508141521 | 15 | 212 | 6.4 | 20.9 | 0.00 | 0.00 | 0.00 | 57 | 1015.8 |
| 20260508140011 | 14 | 239 | 8.0 | 17.7 | 0.00 | 0.00 | 0.00 | 59 | 1015.8 |
| 20260508134508 | 13 | 296 | 6.4 | 17.7 | 0.00 | 0.00 | 0.00 | 62 | 1016.2 |
| 20260508133013 | 13 | 192 | 8.0 | 16.1 | 0.00 | 0.00 | 0.00 | 62 | 1016.2 |
| 20260508131512 | 12 | 168 | 6.4 | 14.5 | 0.00 | 0.00 | 0.00 | 63 | 1016.0 |
| 20260508130014 | 12 | 178 | 6.4 | 17.7 | 0.00 | 0.00 | 0.00 | 64 | 1015.9 |
| 20260508124512 | 12 | 306 | 8.0 | 16.1 | 0.00 | 0.00 | 0.00 | 64 | 1015.9 |
| 20260508123032 | 11 | 181 | 4.8 | 14.5 | 0.00 | 0.00 | 0.00 | 67 | 1015.9 |
| 20260508121516 | 10 | 215 | 4.8 | 11.3 | 0.00 | 0.00 | 0.00 | 71 | 1015.8 |
| 20260508120014 | 8 | 287 | 1.6 | 6.4 | 0.00 | 0.00 | 0.00 | 72 | 1015.7 |
| 20260508114525 | 8 | 231 | 1.6 | 6.4 | 0.00 | 0.00 | 0.00 | 73 | 1015.7 |
| 20260508113010 | 7 | 211 | 1.6 | 4.8 | 0.00 | 0.00 | 0.00 | 74 | 1015.5 |
| 20260508111527 | 7 | 211 | 1.6 | 6.4 | 0.00 | 0.00 | 0.00 | 75 | 1015.5 |
| 20260508110008 | 7 | 203 | 1.6 | 4.8 | 0.00 | 0.00 | 0.00 | 75 | 1015.3 |
| 20260508104532 | 7 | 274 | 3.2 | 8.0 | 0.00 | 0.00 | 0.00 | 75 | 1015.2 |
| 20260508103005 | 6 | 226 | 3.2 | 9.7 | 0.00 | 0.00 | 0.00 | 76 | 1015.1 |
| 20260508101507 | 6 | 217 | 1.6 | 4.8 | 0.00 | 0.00 | 0.00 | 75 | 1015.1 |
| 20260508100033 | 6 | 202 | 1.6 | 6.4 | 0.00 | 0.00 | 0.00 | 75 | 1015.0 |
| 20260508094508 | 6 | 218 | 1.6 | 3.2 | 0.00 | 0.00 | 0.00 | 76 | 1015.0 |
| 20260508093026 | 6 | 218 | 0.0 | 3.2 | 0.00 | 0.00 | 0.00 | 77 | 1015.3 |
| 20260508091527 | 6 | 222 | 0.0 | 3.2 | 0.00 | 0.00 | 0.00 | 77 | 1015.1 |
| 20260508090007 | 6 | 222 | 1.6 | 4.8 | 0.00 | 0.00 | 0.00 | 76 | 1015.3 |
| 20260508084527 | 7 | 221 | 1.6 | 6.4 | 0.00 | 0.00 | 0.00 | 75 | 1015.3 |
| 20260508083009 | 7 | 260 | 3.2 | 6.4 | 0.00 | 0.00 | 0.00 | 74 | 1015.3 |
| 20260508081507 | 7 | 227 | 1.6 | 4.8 | 0.00 | 0.00 | 0.00 | 73 | 1015.2 |
| 20260508080005 | 7 | 229 | 3.2 | 11.3 | 0.00 | 0.00 | 0.00 | 75 | 1015.2 |
| 20260508074516 | 6 | 190 | 0.0 | 3.2 | 0.00 | 0.00 | 0.00 | 77 | 1015.5 |
| 20260508073008 | 7 | 261 | 1.6 | 6.4 | 0.00 | 0.00 | 0.00 | 74 | 1015.4 |
| 20260508071506 | 7 | 211 | 1.6 | 8.0 | 0.00 | 0.00 | 0.00 | 72 | 1015.2 |
| 20260508070007 | 7 | 230 | 1.6 | 4.8 | 0.00 | 0.00 | 0.00 | 72 | 1015.3 |
| 20260508064548 | 8 | 210 | 0.0 | 3.2 | 0.00 | 0.00 | 0.00 | 72 | 1015.3 |
| 20260508063007 | 8 | 209 | 1.6 | 4.8 | 0.00 | 0.00 | 0.00 | 71 | 1015.5 |
| 20260508061527 | 8 | 190 | 1.6 | 6.4 | 0.00 | 0.00 | 0.00 | 71 | 1015.5 |
| 20260508060031 | 8 | 219 | 1.6 | 4.8 | 0.00 | 0.00 | 0.00 | 71 | 1015.5 |
| 20260508054546 | 8 | 226 | 0.0 | 4.8 | 0.00 | 0.00 | 0.00 | 72 | 1015.6 |
| 20260508053024 | 8 | 243 | 0.0 | 0.0 | 0.00 | 0.00 | 0.00 | 75 | 1015.6 |
| 20260508051511 | 7 | 243 | 0.0 | 0.0 | 0.00 | 0.00 | 0.00 | 74 | 1015.7 |
| 20260508050036 | 7 | 243 | 0.0 | 0.0 | 0.00 | 0.00 | 0.00 | 74 | 1015.9 |
| 20260508044526 | 7 | 243 | 0.0 | 0.0 | 0.00 | 0.00 | 0.00 | 74 | 1015.8 |
| 20260508043036 | 7 | 243 | 0.0 | 0.0 | 0.00 | 0.00 | 0.00 | 75 | 1015.8 |
| 20260508041528 | 7 | 243 | 0.0 | 0.0 | 0.00 | 0.00 | 0.00 | 75 | 1015.8 |
| 20260508040021 | 7 | 243 | 0.0 | 0.0 | 0.00 | 0.00 | 0.00 | 74 | 1015.6 |
| 20260508034527 | 7 | 243 | 0.0 | 0.0 | 0.00 | 0.00 | 0.00 | 72 | 1015.6 |
| 20260508033020 | 7 | 243 | 0.0 | 0.0 | 0.00 | 0.00 | 0.00 | 72 | 1015.5 |
| 20260508031522 | 7 | 243 | 0.0 | 0.0 | 0.00 | 0.00 | 0.00 | 74 | 1015.4 |
| 20260508030023 | 7 | 243 | 0.0 | 0.0 | 0.00 | 0.00 | 0.00 | 74 | 1015.7 |
| 20260508024521 | 7 | 243 | 0.0 | 0.0 | 0.00 | 0.00 | 0.00 | 72 | 1015.7 |
| 20260508023021 | 8 | 243 | 0.0 | 0.0 | 0.00 | 0.00 | 0.00 | 71 | 1015.8 |
| 20260508021519 | 8 | 243 | 0.0 | 0.0 | 0.00 | 0.00 | 0.00 | 69 | 1015.7 |
| 20260508020018 | 8 | 243 | 0.0 | 0.0 | 0.00 | 0.00 | 0.00 | 69 | 1015.8 |
| 20260508014520 | 9 | 243 | 0.0 | 0.0 | 0.00 | 0.00 | 0.00 | 67 | 1015.6 |
| 20260508013018 | 10 | 243 | 0.0 | 0.0 | 0.00 | 0.00 | 0.00 | 64 | 1015.7 |
| 20260508011524 | 10 | 243 | 0.0 | 0.0 | 0.00 | 0.00 | 0.00 | 62 | 1015.6 |
| 20260508010026 | 11 | 243 | 0.0 | 0.0 | 0.00 | 0.00 | 0.00 | 60 | 1015.5 |
| 20260508004530 | 11 | 243 | 0.0 | 0.0 | 0.00 | 0.00 | 0.00 | 60 | 1015.4 |
| 20260508003020 | 11 | 243 | 0.0 | 0.0 | 0.00 | 0.00 | 0.00 | 56 | 1015.4 |
| 20260508001524 | 12 | 243 | 1.6 | 4.8 | 0.00 | 0.00 | 0.00 | 53 | 1015.3 |
| 20260508000022 | 12 | 242 | 1.6 | 6.4 | 0.00 | 0.00 | 0.00 | 49 | 1015.1 |
| 20260507234530 | 13 | 231 | 3.2 | 11.3 | 0.00 | 0.00 | 0.00 | 49 | 1014.9 |
| 20260507233025 | 13 | 269 | 3.2 | 9.7 | 0.00 | 0.00 | 0.00 | 47 | 1015.0 |
| 20260507231521 | 13 | 269 | 3.2 | 12.9 | 0.00 | 0.00 | 0.00 | 48 | 1014.9 |
| 20260507230021 | 14 | 272 | 6.4 | 16.1 | 0.00 | 0.00 | 0.00 | 45 | 1014.9 |
| 20260507224522 | 14 | 249 | 8.0 | 14.5 | 0.00 | 0.00 | 0.00 | 44 | 1015.0 |
| 20260507223021 | 14 | 271 | 4.8 | 14.5 | 0.00 | 0.00 | 0.00 | 44 | 1015.3 |
| 20260507221519 | 15 | 265 | 8.0 | 19.3 | 0.00 | 0.00 | 0.00 | 45 | 1015.3 |
| 20260507220021 | 15 | 259 | 8.0 | 17.7 | 0.00 | 0.00 | 0.00 | 42 | 1015.3 |
| 20260507214526 | 13 | 248 | 4.8 | 16.1 | 0.00 | 0.00 | 0.00 | 46 | 1015.3 |
| 20260507213019 | 15 | 223 | 8.0 | 17.7 | 0.00 | 0.00 | 0.00 | 47 | 1015.0 |
| 20260507211525 | 15 | 259 | 9.7 | 19.3 | 0.00 | 0.00 | 0.00 | 44 | 1014.9 |
| 20260507210019 | 15 | 206 | 11.3 | 19.3 | 0.00 | 0.00 | 0.00 | 47 | 1015.0 |
| 20260507204521 | 14 | 274 | 8.0 | 17.7 | 0.00 | 0.00 | 0.00 | 45 | 1015.0 |
| 20260507203020 | 15 | 259 | 8.0 | 20.9 | 0.00 | 0.00 | 0.00 | 48 | 1014.9 |
| 20260507201518 | 15 | 245 | 8.0 | 16.1 | 0.00 | 0.00 | 0.00 | 45 | 1014.7 |
| 20260507200020 | 15 | 278 | 8.0 | 17.7 | 0.00 | 0.00 | 0.00 | 48 | 1015.0 |
| 20260507194517 | 14 | 263 | 8.0 | 20.9 | 0.00 | 0.00 | 0.00 | 48 | 1015.0 |
| 20260507193021 | 15 | 259 | 4.8 | 19.3 | 0.00 | 0.00 | 0.00 | 49 | 1015.1 |
| 20260507191527 | 15 | 267 | 11.3 | 20.9 | 0.00 | 0.00 | 0.00 | 49 | 1015.1 |
| 20260507190020 | 14 | 264 | 8.0 | 19.3 | 0.00 | 0.00 | 0.00 | 49 | 1015.3 |